www.pogodaiklimat.ru

Погода и климат >> Архив погоды >> Индия >> Amritsar


ПОГОДА в Amritsar

  • Прогноз погоды в Amritsar
  • Монитор погоды в Amritsar
  • Климат города

АРХИВ ПОГОДЫ в Amritsar

Время (UTC), дата Ветер
(напр.,м/с)
 
Видим.   Явления Облачность Т
(С)
Тd
(С)
f
(%)
Тe
(С)
Тes
(С)
Комфортность P
(гПа)
Po
(гПа)
Тmin
(С)
Tmax
(С)
R
(мм)
R24
(мм)
S
(см)
21 10.10 штиль 0 2000 м дымка ясно +23.1 +23.1 100 +32 +32 очень
душно
1006.2 1006.0
00 11.10 штиль 0 2000 м дымка ясно +22.4 +22.4 100 +30 +30 очень
душно
1007.3 1007.0
03 11.10 штиль 0 2000 м дымка ясно +25.0 +22.4 86 +33 +36 очень
душно
1009.2 1009.0 +20.4 +34.1
06 11.10 нст 1 2000 м мгла ясно +31.6 +22.2 58 +41 +55 опасность
перегрева
1008.6 1009.0
09 11.10 нст 2 2000 м мгла ясно +33.4 +17.6 39 +37 +47 очень
душно
1006.3 1006.0
12 11.10 штиль 0 2000 м мгла ясно +32.0 +19.4 47 +38 +38 очень
душно
1006.0 1006.0 +34.6
15 11.10 штиль 0 2000 м мгла ясно +26.4 +18.6 62 +31 +31 душно 1007.7 1008.0
18 11.10 штиль 0 2000 м дымка ясно +24.0 +21.0 83 +30 +30 очень
душно
1008.2 1008.0
21 11.10 штиль 0 2000 м дымка ясно +23.0 +21.8 93 +31 +31 очень
душно
1007.3 1007.0
00 12.10 нст 1 2000 м дымка ясно +22.2 +22.2 100 +30 +30 очень
душно
1007.5 1008.0
03 12.10 нст 1 2000 м дымка ясно +24.6 +23.1 91 +33 +36 очень
душно
1008.9 1009.0 +21.5 +34.6
06 12.10 С 2 2000 м мгла ясно +31.4 +25.5 71 +46 +57 опасность
перегрева
1008.3 1008.0
09 12.10 З 3 4000 м мгла ясно +33.2 +22.4 53 +42 +51 опасность
перегрева
1005.4 1005.0
12 12.10 штиль 0 4000 м мгла ясно +31.4 +22.3 59 +41 +41 опасность
перегрева
1004.2 1004.0 +34.2
15 12.10 штиль 0 2000 м дымка ясно +25.8 +22.2 81 +34 +34 очень
душно
1005.7 1006.0
18 12.10 штиль 0 2000 м дымка ясно +24.0 +22.8 93 +32 +32 очень
душно
1005.7 1006.0
21 12.10 штиль 0 2000 м дымка ясно +23.1 +23.1 100 +32 +32 очень
душно
1004.9 1005.0
00 13.10 штиль 0 2000 м дымка ясно +21.0 +21.0 100 +26 +26 душно 1005.5 1006.0
03 13.10 нст 1 4000 м дымка ясно +24.8 +23.9 95 +34 +37 очень
душно
1006.1 1006.0 +20.3 +34.2
06 13.10 нст 2 2000 м мгла ясно +30.8 +24.8 70 +44 +56 опасность
перегрева
1006.0 1006.0
09 13.10 З 3 4000 м мгла ясно +33.8 +23.8 56 +45 +53 опасность
перегрева
1003.0 1003.0
12 13.10 нст 1 4000 м мгла ясно +31.4 +21.0 54 +39 +39 очень
душно
1002.1 1002.0 +34.6
15 13.10 штиль 0 4000 м мгла ясно +24.6 +19.6 74 +30 +30 очень
душно
1003.9 1004.0
18 13.10 штиль 0 2000 м дымка ясно +22.4 +22.4 100 +30 +30 очень
душно
1004.4 1004.0
21 13.10 штиль 0 2000 м дымка ясно +20.6 +20.6 100 +25 +25 комфорт 1004.3 1004.0
00 14.10 штиль 0 2000 м дымка ясно +19.7 +19.7 100 +23 +23 комфорт 1005.5 1006.0
03 14.10 нст 1 2000 м дымка ясно +23.4 +21.6 90 +32 +34 очень
душно
1007.0 1007.0 +19.3 +34.6
06 14.10 нст 1 2000 м мгла ясно +31.4 +24.3 66 +44 +57 опасность
перегрева
1006.7 1007.0
09 14.10 З 3 4000 м мгла ясно +33.2 +21.4 50 +41 +49 опасность
перегрева
1004.0 1004.0
12 14.10 нст 1 4000 м мгла ясно +31.6 +20.9 53 +39 +39 очень
душно
1002.8 1003.0 +34.4
15 14.10 штиль 0 4000 м мгла ясно +24.6 +19.3 72 +30 +30 очень
душно
1004.2 1004.0
18 14.10 штиль 0 2000 м дымка ясно +23.0 +18.6 76 +29 +29 очень
душно
1004.7 1005.0
21 14.10 штиль 0 2000 м дымка ясно +21.4 +19.0 86 +26 +26 душно 1004.7 1005.0
00 15.10 штиль 0 2000 м дымка ясно +20.2 +18.9 92 +23 +23 комфорт 1005.0 1005.0
03 15.10 штиль 0 2000 м дымка ясно +23.6 +21.8 90 +30 +33 очень
душно
1006.7 1007.0 +18.6 +34.4
06 15.10 нст 1 2000 м мгла ясно +30.5 +21.7 59 +39 +52 опасность
солнечного
удара
1006.4 1006.0
09 15.10 нст 1 2000 м мгла ясно +34.0 +20.3 45 +41 +51 опасность
перегрева
1003.9 1004.0
12 15.10 нст 1 2000 м мгла ясно +31.0 +20.1 52 +37 +38 очень
душно
1003.4 1003.0 +35.1
15 15.10 нст 2 2000 м мгла ясно +26.0 +17.0 58 +30 +30 душно 1005.3 1005.0
18 15.10 штиль 0 2000 м дымка ясно +23.2 +22.6 96 +32 +32 очень
душно
1005.8 1006.0
21 15.10 нст 1 2000 м дымка ясно +22.0 +22.0 100 +29 +29 очень
душно
1005.8 1006.0
00 16.10 штиль 0 2000 м дымка ясно +20.0 +20.0 100 +23 +23 комфорт 1006.7 1007.0
03 16.10 нст 1 2000 м дымка ясно +22.0 +20.5 91 +28 +31 душно 1007.3 1007.0 +19.0 +35.1
06 16.10 нст 1 4000 м мгла ясно +30.0 +20.7 57 +37 +50 очень
душно
1008.2 1008.0
09 16.10 З 2 4000 м мгла ясно +33.0 +17.4 39 +37 +45 очень
душно
1005.9 1006.0
12 16.10 нст 1 4000 м мгла ясно +30.6 +20.7 56 +38 +38 очень
душно
1005.2 1005.0 +33.9
15 16.10 штиль 0 2000 м дымка ясно +24.0 +20.0 78 +29 +29 душно 1006.5 1007.0
18 16.10 штиль 0 2000 м дымка ясно +20.4 +20.4 100 +24 +24 комфорт 1007.1 1007.0
21 16.10 штиль 0 2000 м дымка ясно +20.0 +19.1 95 +23 +23 комфорт 1006.7 1007.0
00 17.10 штиль 0 2000 м дымка ясно +18.6 +18.6 100 +20 +20 1007.4 1007.0
03 17.10 З 2 2000 м дымка ясно +23.4 +21.0 86 +31 +33 очень
душно
1009.1 1009.0 +17.6 +33.9
06 17.10 СЗ 3 4000 м мгла ясно +29.8 +22.1 63 +38 +47 очень
душно
1009.3 1009.0
09 17.10 З 5 4000 м ясно +32.6 +19.6 46 +38 +43 очень
душно
1006.9 1007.0
12 17.10 нст 1 4000 м мгла ясно +30.6 +17.8 46 +35 +35 очень
душно
1006.1 1006.0 +33.5
15 17.10 штиль 0 2000 м мгла ясно +23.3 +16.0 64 +28 +28 душно 1007.6 1008.0

 

Местоположение метеостанции Amritsar (Punjab, Индия): широта 31.63 долгота 74.87 высота над уровнем моря 234 м.

В архиве по умолчанию представлена погода в Amritsar за последнюю неделю. Архивные данные за месяц целиком и за предыдущие месяцы, начиная с января 2011 года, Вы можете получить, выбрав интересующий диапазон дат из раскрывающегося списка и нажав кнопку "Ввод!".

Внимание! Время в таблицах - всемирное. Для получения местного времени необходимо прибавить поправку, которая в Amritsar равна 5.5 ч.

Смотрите также архив погоды в соседних городах и на ближайших метеорологических станциях:

Погода в Lahore City (Пакистан) (52 км)
Погода в Sialkot (Пакистан) (102 км)
Погода в Jammu (Jammu and Kashmir, Индия) (116 км)
Погода в Ludhiana (Punjab, Индия) (132 км)
Погода в Una (Himachal Pradesh, Индия) (134 км)
Погода в Kangra (Himachal Pradesh, Индия) (142 км)
Погода в Katra (Jammu and Kashmir, Индия) (151 км)
Погода в Dharamsala (Himachal Pradesh, Индия) (159 км)
Погода в Batote (Jammu and Kashmir, Индия) (169 км)
Погода в Faisal Abad (Пакистан) (169 км)

Пояснения к столбцам:

Ветер - указаны скорость ветра в м/с - средняя за 10 мин, порывы в срок и между сроками (в фигурных скобках) и направление, откуда дует ветер: С - северный, СВ - северо-восточный, В - восточный, ЮВ - юго-восточный, Ю - южный, ЮЗ - юго-западный, З - западный, СЗ - северо-западный.
Видимость - горизонтальная дальность видимости в метрах или километрах. При видимости от 1 до 10 км при отсутствии осадков обычно наблюдается дымка, при ухудшении видимости до 1 км и менее - туман. В сухую погоду видимость может ухудшаться дымом, пылью или мглою.
Явления - указаны атмосферные явления, наблюдавшиеся в срок или в последний час перед сроком; фигурными скобками обозначены явления, наблюдавшиеся между сроками (за 1-3 часа до срока); квадратными скобками обозначены град или гололедные отложения с указанием их диаметра в мм.
Облачность - указаны через наклонную черту общая и нижняя облачность в баллах и высота нижней границы облаков в метрах; квадратными скобками обозначены формы облаков: Ci - перистые, Cs - перисто-слоистые, Cc - перисто-кучевые, Ac - высококучевые, As - высокослоистые, Sc - слоисто-кучевые, Ns - слоисто-дождевые, Cu - кучевые, Cb - кучево-дождевые. Подробнее классификацию облаков см. в Атласе облаков (PDF).
T - Температура воздуха - температура, измеренная на высоте 2 м над землей.
Td - Температура точки росы - температура, при понижении до которой содержащийся в воздухе водяной пар достигнет насыщения.
f - Относительная влажность воздуха - влажноcть воздуха, измеренная на высоте 2 м над землей.
Te - Эффективная температура - температура, которую ощущает одетый по сезону человек в тени. Характеристика душности погоды. При расчете учитывается влияние влажности воздуха и скорости ветра на теплоощущения человека.
Tes - Эффективная температура на солнце - температура, которую ощущает человек, с поправкой на солнечный нагрев. Характеристика знойности погоды. Зависит от высоты солнца над горизонтом, облачности и скорости ветра. Ночью, в пасмурную погоду, а также при ветре 12 м/с и более поправка равна нулю.
P - Атмосферное давление - приведенное к уровню моря атмосферное давление.
Po - Атмосферное давление - измеренное на уровне метеостанции атмосферное давление.
Tmin - Минимальная температура - минимум температуры воздуха на высоте 2 м над землей.
Tmax - Максимальная температура - максимум температуры воздуха на высоте 2 м над землей.
R - Количество осадков - Количество выпавших осадков за период времени, мм. При наведении курсора мыши на число - период времени, за который выпало указанное количество осадков.
R24 - Количество осадков - Количество выпавших осадков за 24 часа, мм.
S - Снежный покров - Высота снежного покрова, см. При наведении курсора мыши на число - состояние снежного покрова и степень покрытия местности в баллах.